Showing default

IRIDIUM 131, 43079

Orbit data source: Space-Track

IRIDIUM 131, 43079 is a payload satellite owned by Iridium (US) in LEO that was launched on Sat, 23 Dec 2017 UTC via an FALCON 9 launch vehicle from the Air Force Western Test Range (AFWTR). Payload-class satellites include a variety of spacecraft equipped with specific instruments for various scientific and technological missions. These include communications satellites like Starlink; space stations such as the ISS; scientific satellites like the Hubble; Earth observation satellites from companies like Planet Labs, Umbra, and HawkEye 360; GPS; miniature CubeSats for education and research; and military/defense satellites.

Loading next visibility...
Identifier
43079, 2017-083K
Orbit
LEO
Country
Flag of USUS
Related business
Manufacturer
OATK SSG Gilbert
Mission
Operational Commercial Communications
Bus & Motor
ELITEBUS, Unknown motor
Mass
860 kg wet, 700 kg dry
Launch date (UTC)
2017-12-23 (8 years ago)
Launch vehicle
FALCON 9
Launch site
Air Force Western Test Range (AFWTR)
Object type
Payload
Rocket body
Debris
Shape & HBR
Trap Box + 2 Pan, 4.8 m
Radar Cross Section
10.154 m², Large (>1 m²)

Expand to show TLE details & history
Last TLE update: 19 hours ago

TLE from 19 hours ago
0 IRIDIUM 131
1 43079U 17083K   25287.81374030  .00000137  00000-0  41935-4 0  9999
2 43079  86.3950  64.7219 0002052  95.5299 264.6131 14.34218077408937
Epoch: 2025-10-14T19:31Z
TLE epoch observation values (Epoch: 2025-10-14T19:31:47.161Z)
Latitude
-0.00004°
Longitude
108.17862°
Altitude
780.855 km
Speed
7.463 km/s
True Right ascension
04h 18m 53s
True Declination
0° 00' 00"
Sunlit
Object was in full shadow at epoch
Visualization orbit readout
Latitude
Unknown
Longitude
Unknown
Altitude
Unknown
Speed
Unknown
Apparent Right ascension
Unknown
Apparent Declination
Unknown
Sunlit
N/A
Visualization observer readout
Local Sidereal Time
08:55:19
Azimuth
Unknown
Elevation
Unknown
Doppler factor
Unknown
Orbital elements
Apogee altitude
776.098 km
Perigee altitude
773.163 km
Semi-major axis
7,152.768 km
Eccentricity
0.00021
Inclination
86.395°
RAAN
64.7219°
Arg. of periapsis
95.5299°
True anomaly
264.58969°
Mean anomaly
264.6131°
Eccentric anomaly
264.6014°
Mean motion
3.58783 °/min
Orbital period
100.34 mins
BSTAR
0.000041935
Loading maneuver chart data...
Computing Atmospheric mass density...
Loading historical data...
Loading historical data...
Loading historical data...
Loading historical data...
Loading historical data...
Loading historical data...
Loading historical data...

Documentation

Showing up to 5 results
|